Location: Bontebok
(52.9622°N, 6.0280°E)
Time: 06:31:41
(UTC+00:00)

Daily predictions for brighter satellites

Satellite Brightness Start Highest point End
(mag) Time Altitude Azimuth Time Altitude Azimuth Time Altitude Azimuth
Meteor 1-21 4.2 18:06:22 10° NNW 18:12:02 78° ENE 18:17:38 10° SSE
Cosmos 1603 4.3 18:08:17 10° NW 18:13:54 63° WSW 18:19:27 10° SSE
NOSS 3-1 (A) 3.9 18:12:08 10° WSW 18:17:50 68° NW 18:24:39 10° NE
CSL-04 Rocket 3.7 18:12:37 10° SSE 18:18:03 83° ENE 18:23:37 10° NNW
SJ 16-02 1.7 18:15:57 10° SSW 18:20:19 71° WNW 18:24:44 10° NNE
OBJECT-B 2.8 18:19:43 10° E 18:21:32 14° ENE 18:23:22 10° NNE
Cosmos 1937 Rocket 3.6 18:19:03 10° S 18:24:10 55° ESE 18:29:16 10° NNE
NOSS 8 (E) 4.1 18:21:05 10° SW 18:24:12 62° SE 18:27:13 10° NE
Abrixas rocket 3.1 18:27:02 10° SW 18:29:34 28° S 18:31:44 12° ESE
Okean 2 Rocket 3.8 18:27:16 10° SSE 18:31:18 33° E 18:35:19 10° NNE
NOSS 2-2 (E) 3.9 18:29:42 10° S 18:32:53 32° ESE 18:36:29 10° ENE
Cosmos 1464 Rocket 4.3 18:27:16 10° SSE 18:33:01 45° E 18:38:51 10° NNE
USA 116 3.3 18:30:21 10° NNE 18:33:42 72° ESE 18:37:25 10° S
SL-08 RB Rocket 3.9 18:29:24 10° SE 18:33:51 52° ENE 18:38:17 10° N
Okean 2 4.4 18:30:18 10° NNW 18:34:23 53° W 18:38:25 10° S
Cosmos 1544 4.1 18:32:56 10° SSW 18:36:31 51° WNW 18:40:07 10° N
Okean-O 4.4 18:33:25 10° SSW 18:37:32 37° W 18:41:41 10° NNW
ATLAS 2AS CENTAUR R/B 4.4 18:36:23 10° SE 18:39:29 13° E 18:42:36 10° ENE
Cosmos 1300 Rocket 4.1 18:35:48 10° SSE 18:39:52 38° E 18:43:59 10° NNE
NOSS 2-2 (D) 3.9 18:38:26 10° S 18:41:34 30° ESE 18:45:04 10° ENE
CENTAUR R/B 3.3 18:36:28 10° NW 18:44:08 67° NE 18:51:59 13° ESE
Iridium 4 Rocket 4.1 18:41:04 10° SSW 18:46:03 63° W 18:51:33 10° N
Cosmos 2082 Rocket 4.0 18:42:19 10° NNW 18:46:13 19° NNE 18:50:07 10° ENE
YAOGAN 1 4.1 18:42:48 10° SSW 18:46:51 39° W 18:50:57 10° NNW
Cosmos 1975 3.5 18:43:33 10° SSW 18:47:37 62° WNW 18:51:41 10° N
Cosmos 1674 3.5 18:46:01 10° N 18:49:32 33° ENE 18:52:10 15° SE
H-2A R/B 2.4 18:45:59 10° S 18:50:56 68° WSW 18:56:03 10° NNW
ATLAS 3B R/B 3.5 18:44:49 10° NW 18:51:10 41° NNE 18:56:56 13° E
CZ-4 R/B 3.6 18:48:37 10° SSW 18:52:19 29° W 18:56:03 10° NNW
Cosmos 1048 Rocket 4.1 18:47:32 10° NNW 18:52:50 67° ENE 18:58:03 11° SE
Cosmos 1536 Rocket 3.7 18:49:42 10° N 18:54:06 56° ENE 18:58:29 10° SSE
Cosmos 2297 Rocket 4.5 18:50:45 10° W 18:55:14 23° NNW 18:59:44 10° NNE
ISS -2.3 18:52:44 10° SSW 18:55:21 21° SSE 18:56:09 19° SE
USA 238 DEB 3.9 18:48:32 10° NW 18:55:42 88° NE 19:02:30 13° SE
USA 238 3.9 18:48:38 10° NW 18:55:49 88° NE 19:02:35 13° SE
In-Cosmos 22 4.0 18:51:19 10° NNW 18:56:39 80° ENE 19:01:59 10° SSE
COSMOS 2406 4.2 18:52:26 10° NNW 18:57:28 31° NE 19:01:06 16° E
Cosmos 1891 Rocket 4.4 18:54:20 10° S 19:00:25 71° E 19:06:28 10° NNE
Meteor 1-24 Rocket 4.5 18:56:47 10° N 19:01:41 32° ENE 19:04:56 19° ESE
Cosmos 1025 Rocket 3.0 18:59:42 10° N 19:04:07 88° E 19:08:30 10° S
CZ-2C R/B 2.9 18:58:56 10° NNE 19:04:17 48° E 19:09:40 10° S
ARGOS 3.5 18:59:09 10° S 19:04:29 69° WSW 19:09:53 10° NNW
Cosmos 1707 3.3 19:03:35 10° NNW 19:07:23 59° W 19:11:09 10° S
KORONAS-FOTON 4.0 19:07:20 10° N 19:11:12 52° ENE 19:13:36 21° SE
Cosmos 2151 Rocket 3.6 19:08:16 10° S 19:12:38 58° E 19:17:04 10° NNE
USA 186 2.2 19:13:20 10° S 19:16:27 60° W 19:19:42 10° NNW
CREW DRAGON DEMO-1 DEB 2.9 19:14:06 10° W 19:17:07 62° S 19:18:00 39° SE
Ariane Rocket 3.1 19:14:19 10° SSE 19:19:22 78° WSW 19:24:30 10° NNW
SJ-6B 2.7 19:16:15 12° SSE 19:19:41 83° WSW 19:23:29 10° NNW
Nadezhda 4 Rocket 3.9 19:15:23 10° N 19:21:34 90° E 19:27:41 10° S
Cosmos 1844 4.2 19:16:43 10° S 19:21:52 36° ESE 19:26:58 10° NE
FREGAT/IRIS 2.4 19:20:39 26° S 19:21:56 69° W 19:24:32 10° NNW
Cosmos 494 Rocket 4.0 19:17:17 10° NNW 19:22:34 75° ENE 19:26:06 21° SE
NOSS 3-2 (A) 4.2 19:16:00 10° NW 19:23:18 71° SW 19:30:19 15° SSE
Cosmos 1766 4.1 19:23:36 30° E 19:23:41 30° E 19:27:08 10° NNE
Cosmos 2263 Rocket 2.9 19:18:18 10° SW 19:23:47 57° NW 19:29:20 10° NNE
Terra 3.8 19:23:42 12° ENE 19:24:43 13° NE 19:26:48 10° NNE
NOSS 2-2 (C) 3.0 19:22:26 10° SW 19:25:59 72° SE 19:30:06 10° NE
MOS 1 4.4 19:22:24 10° SSE 19:28:06 78° WSW 19:33:51 10° NNW
Lacrosse 4 Rocket 3.2 19:25:51 10° NNW 19:28:52 20° NNE 19:30:19 17° ENE
Cosmos 1844 Rocket 2.8 19:25:09 10° S 19:30:29 49° ESE 19:35:52 10° NE
Cosmos 2034 Rocket 4.0 19:24:13 10° S 19:30:34 80° E 19:36:56 10° NNE
NOSS 5 (C) 4.3 19:27:56 10° NW 19:30:57 67° NE 19:31:42 47° ESE
Cosmos 2298 Rocket 3.9 19:27:36 10° SSW 19:32:53 69° ESE 19:38:13 10° NNE
ATLAS CENTAUR R/B 3.8 19:33:22 10° NW 19:35:49 16° NNW 19:38:15 10° NNE
SPOT 3 Rocket 3.5 19:32:57 22° SSE 19:36:19 75° ENE 19:41:29 10° NNW
USA 234 3.7 19:37:13 15° ENE 19:42:07 37° SE 19:48:07 10° SSW
IGS 5A 4.1 19:44:06 35° ENE 19:44:25 35° ENE 19:48:14 10° N
Resurs 01 Rocket 1.6 19:42:54 37° SE 19:44:33 66° ENE 19:49:00 10° N
Lacrosse 5 rocket 2.2 19:42:49 10° W 19:47:05 50° N 19:49:28 25° ENE
Cosmos 1340 Rocket 4.4 19:48:51 21° NE 19:48:51 21° NE 19:50:37 10° NNE
Cosmos 1833 Rocket 3.2 19:44:02 10° NNW 19:49:30 46° NE 19:51:25 34° E
SPOT 5 4.2 19:49:28 25° ENE 19:50:23 27° ENE 19:54:45 10° N
Cosmos 372 Rocket 4.4 19:46:57 10° SW 19:52:10 65° WNW 19:57:23 10° NNE
OBJECT-B 1.4 19:52:33 36° SSW 19:53:32 53° W 19:56:44 10° NNW
Meteor 1-15 Rocket 4.1 19:49:21 10° S 19:54:59 86° E 20:00:46 10° NNE
Cosmos 1626 1.9 19:52:10 10° N 19:55:53 71° ENE 19:56:03 70° E
DMSP B5D2-2 4.1 19:52:43 10° NNE 19:58:02 81° WNW 20:03:20 10° SSW
NOSS 3-2 (C) 4.2 19:50:49 10° NW 19:58:07 68° SW 20:03:03 26° SSE
SJ 16-02 4.5 19:57:18 10° WNW 19:59:46 15° NW 20:02:14 10° N
ARIANE 5 R/B 2.6 20:01:02 55° ESE 20:01:33 59° ENE 20:05:51 10° N
Cosmos 2150 Rocket 4.1 19:57:13 10° SSW 20:02:38 80° WNW 20:08:08 10° NNE
Cosmos 1634 Rocket 3.9 19:59:03 22° S 20:03:09 66° E 20:09:19 10° NNE
Abrixas rocket 4.2 20:01:55 10° WSW 20:03:00 18° WSW 20:03:00 18° WSW
BREEZE-M TANK 3.8 19:58:52 10° WSW 20:04:38 31° S 20:04:38 31° S
CRYOSAT 2 4.4 20:01:06 10° NNE 20:05:56 55° E 20:06:28 52° ESE
Landsat 7 3.8 20:09:07 55° ESE 20:09:45 62° ENE 20:14:29 10° N
Cosmos 1125 Rocket 3.4 20:05:07 10° SSW 20:10:26 85° ESE 20:15:48 10° NNE
Cosmos 2285 Rocket 3.9 20:04:10 10° SSW 20:10:27 75° ESE 20:16:49 10° NNE
Okean 1 Rocket 3.1 20:08:19 26° SSW 20:10:48 82° WNW 20:15:19 10° N
ERS-1 Rocket 3.5 20:17:26 42° ENE 20:17:39 42° ENE 20:22:22 10° N
Cosmos 1092 Rocket 4.5 20:14:58 10° NNW 20:21:00 57° W 20:25:37 17° SSW
Meteor 2-19 Rocket 4.4 20:15:03 10° N 20:21:11 67° ENE 20:22:38 51° SE
Meteor 2-5 Rocket 4.2 20:16:46 10° NNW 20:22:17 58° W 20:25:27 26° SSW
Cosmos 1805 3.9 20:24:12 35° SW 20:25:29 53° WNW 20:29:22 10° N
Cosmos 2026 Rocket 4.3 20:20:56 10° NNW 20:27:14 67° W 20:30:53 27° S
Cosmos 2098 Rocket 4.2 20:21:20 10° N 20:28:34 63° ENE 20:30:00 52° SE
ATLAS 2AS CENTAUR R/B 3.1 20:21:14 10° SSW 20:28:48 49° ESE 20:36:16 10° NE
Cosmos 2082 Rocket 2.4 20:26:06 10° NNW 20:31:37 54° NE 20:32:16 51° ENE
ISS -1.2 20:28:25 10° WSW 20:29:08 15° WSW 20:29:08 15° WSW
NOSS 2-2 (D) 4.4 20:28:27 10° WSW 20:31:57 43° NNW 20:36:13 10° NE
CENTAUR R/B 3.7 20:27:18 10° NW 20:34:58 51° WSW 20:39:10 30° S
Cosmos 1733 3.8 20:36:18 54° WNW 20:36:18 54° WNW 20:39:56 10° N
Meteor 1-22 Rocket 4.3 20:34:25 33° SSW 20:37:14 86° WNW 20:43:20 10° NNE
Cosmos 1892 Rocket 3.7 20:33:19 10° NNW 20:37:39 67° W 20:37:39 67° W
CZ-2C R/B 4.0 20:33:15 10° N 20:37:40 64° WNW 20:38:59 42° SW
COSMOS 2406 3.2 20:36:37 10° NW 20:42:17 71° WSW 20:43:10 60° S
ATLAS 3B R/B 2.6 20:35:43 10° NW 20:42:33 88° SW 20:44:10 57° SE
SL-14 R/B 4.3 20:39:33 10° NNW 20:43:14 41° W 20:43:14 41° W
SPOT 1/Viking Rocket 3.4 20:43:21 78° S 20:43:44 87° WSW 20:48:56 10° NNW
CZ-2C R/B 4.2 20:39:29 10° N 20:44:29 36° WNW 20:49:31 10° SW
Meteor 1-24 Rocket 4.4 20:39:44 10° NNW 20:45:01 50° W 20:47:08 33° SSW
CARTOSAT-1 4.2 20:46:20 50° NNE 20:46:20 50° NNE 20:49:41 10° N
Cosmos 2279 Rocket 3.9 20:44:35 54° S 20:46:09 84° E 20:52:28 10° NNE
Cosmos 2142 Rocket 4.5 20:47:06 41° SSW 20:49:30 83° W 20:55:47 10° N
Spot 2 Rocket 3.6 20:51:07 66° SW 20:51:26 69° WSW 20:56:30 10° NNW
Exosat Rocket 4.1 20:51:28 10° SW 20:56:40 54° NW 21:01:38 10° NNE
Terra 2.4 21:02:36 49° NNE 21:02:36 49° NNE 21:06:17 10° N
Meteor 1-21 Rocket 4.1 20:57:25 10° NNW 21:03:07 81° ENE 21:03:07 81° ENE
Cosmos 2278 Rocket 3.5 21:07:57 28° NE 21:07:57 28° NE 21:10:36 10° NE
Cosmos 1844 4.4 21:00:19 10° SW 21:05:51 52° NW 21:11:23 10° NNE
Lacrosse 4 Rocket 2.7 21:04:05 10° NW 21:06:37 37° NNW 21:06:37 37° NNW
Cosmos 909 Rocket 3.9 21:02:24 10° NW 21:09:07 87° SW 21:09:31 80° SSE
Cosmos 407 Rocket 4.4 21:08:41 10° NNW 21:12:44 39° NNE 21:12:44 39° NNE
Cosmos 1844 Rocket 3.9 21:09:17 10° WSW 21:14:32 40° NW 21:19:49 10° NNE
ATLAS CENTAUR R/B 3.8 21:13:51 10° NNW 21:15:56 15° N 21:15:56 15° N
Cosmos 2251 Rocket 3.8 21:15:08 10° NNW 21:19:53 65° WNW 21:19:53 65° WNW
Resurs 01 Rocket 3.9 21:20:28 17° WSW 21:21:30 18° W 21:24:38 10° NW
Meteor 2-21 4.4 21:19:14 10° N 21:25:06 77° NNE 21:25:06 77° NNE
USA 234 3.1 21:24:43 68° ENE 21:25:42 85° SSE 21:32:16 10° WSW
Lacrosse 5 rocket 2.9 21:22:17 10° WNW 21:25:05 37° NW 21:25:05 37° NW
Cosmos 1809 Rocket 4.4 21:20:44 10° NNW 21:26:45 84° NNW 21:26:45 84° NNW
SPOT 5 3.5 21:28:43 58° WNW 21:28:43 58° WNW 21:33:21 10° NNW
Cosmos 2266 Rocket 4.0 21:23:29 10° NNW 21:29:30 67° W 21:29:34 67° W
Cosmos 1833 Rocket 3.5 21:28:08 10° NW 21:33:07 42° W 21:33:07 42° W
NOSS 3-4 (A) 3.8 21:57:18 61° N 21:57:18 61° N 22:02:57 10° NE
NOSS 3-4 (C) 3.8 21:57:30 60° NNE 21:57:30 60° NNE 22:03:03 10° NE
ERS-1 Rocket 4.4 21:57:27 32° WNW 21:57:27 32° WNW 22:01:08 10° NNW
Cosmos 1943 Rocket 4.4 22:16:55 14° NE 22:16:55 14° NE 22:17:49 10° NE
Cosmos 2082 Rocket 3.6 22:10:30 10° NW 22:14:06 30° WNW 22:14:06 30° WNW
MOS 1-B Rocket 4.4 22:10:34 10° NNE 22:16:59 82° N 22:16:59 82° N
ATLAS 2AS CENTAUR R/B 3.3 22:11:48 10° WSW 22:19:45 66° NW 22:27:30 10° NE
ATLAS 3B R/B 4.2 22:27:03 10° WNW 22:31:25 25° W 22:31:25 25° W
COSMOS 2455 4.1 22:39:35 34° NE 22:39:35 34° NE 22:42:51 10° NE
Terra 4.1 22:41:29 18° WNW 22:41:29 18° WNW 22:43:24 10° NW
Cosmos 2369 Rocket 4.4 22:44:15 17° NE 22:44:15 17° NE 22:45:37 10° NE
NOSS 3-1 (C) 4.2 22:36:51 10° NW 22:43:46 60° NNE 22:44:17 58° NE
Cosmos 2278 Rocket 3.5 22:49:46 36° NW 22:49:46 36° NW 22:54:41 10° NNE
USA 234 4.5 23:02:10 10° ENE 23:12:14 28° W 23:15:06 10° W
Cosmos 2227 Rocket 4.2 23:21:49 10° NNW 23:26:14 23° NNE 23:27:48 20° NE
CZ-4C R/B 3.4 23:34:17 40° NNE 23:34:17 40° NNE 23:38:43 10° NE
USA 229 DEB 4.2 23:35:03 10° NW 23:40:43 60° NW 23:40:43 60° NW
USA 229 4.2 23:35:09 10° NW 23:40:49 60° NNW 23:40:49 60° NNW
